Location: Dumbr?vi?a
(45.8833°N, 22.7000°E)
Time: 14:32:36
(UTC+00:00)

ASTEX 1 - Pass Details

Date: 03 March 2021
Orbit: 720 x 743 km, 92.7° (Epoch: 11 April)

Event Time Altitude Azimuth Distance (km) Brightness Sun altitude
Rises 17:41:25 0° 14° (NNE) 3,148 6.6 -15.2°
Reaches altitude 10° 17:43:56 10° 24° (NNE) 2,220 5.7 -15.6°
Maximum altitude 17:48:20 33° 88° (E) 1,203 4.0 -16.4°
Enters shadow 17:50:37 22° 134° (SE) 1,536 4.6 -16.8°
